Tracking 35331 objects as of 15-Sep-2026
HD Live streaming from Space Station
objects crossing your sky now

SL-12 DEB


SL-12 DEB is no longer on orbit


NORAD ID: 28761
Int'l Code: 2002-037BG
Launch date: July 25, 2002
Source: Commonwealth of Independent States (former USSR) (CIS)
Launch site: TYURATAM MISSILE AND SPACE COMPLEX (TTMTR)
Decay date: 2005-07-13

Note: This is SATELLITE DEBRIS
Your satellite tracking list
Your tracking list is empty




NASA's NSSDC Master Catalog

Two Line Element Set (TLE):
1 28761U 02037BG  05194.81229036  .53818576  66572-5  16556-1 0  9994
2 28761 064.5910 359.7042 0093222 115.6758 245.4078 16.15719249  1660
Source of the keplerian elements: AFSPC